Wind_Speed
36 40 47 45 50 49 50 50 48 47 43 49 52 48 50 45 40 48 51 45 39 37 32 31 30 27 26 24 23 23 22 21
40 47 53 55 61 51 49 50 53 52 49 49 49 57 48 50 44 45 51 50 43 40 37 35 34 30 26 24 24 24 23 21
47 53 60 63 58 52 49 50 51 56 57 50 50 53 60 51 51 47 50 51 47 43 41 39 35 32 29 27 26 24 24 23
53 59 59 60 53 46 43 46 48 52 57 56 53 50 58 64 51 49 51 48 50 49 46 42 38 35 33 29 28 26 25 24
55 55 52 48 46 37 34 37 40 42 53 58 55 55 52 61 60 54 47 52 52 54 49 45 42 38 36 32 31 29 27 25
48 48 46 43 41 34 29 30 37 40 43 52 58 57 55 54 65 54 46 49 55 55 54 49 47 43 38 36 34 32 30 29
43 42 42 42 36 29 26 26 37 43 43 49 52 59 58 51 61 57 54 53 52 59 59 54 50 46 41 38 36 35 32 30
41 40 41 41 35 35 39 36 29 36 42 44 47 49 61 59 59 66 58 56 56 69 65 60 54 48 44 40 39 37 34 32
40 39 39 40 38 43 43 41 31 27 24 35 41 44 48 57 55 64 70 56 66 49 69 60 53 47 45 43 41 39 35 34
39 38 37 36 34 39 41 34 32 23 20 24 29 40 42 45 48 61 62 59 38 41 68 59 52 46 44 44 42 39 35 33
34 36 36 34 32 33 28 24 25 20 19 22 17 23 31 33 34 50 51 60 5 62 63 50 45 42 45 45 41 37 35 33
29 30 32 30 28 21 22 20 9 8 14 18 15 14 12 18 26 36 46 50 44 24 38 48 49 45 46 45 43 39 37 34
24 27 30 29 26 25 23 24 28 23 15 15 15 11 8 20 24 42 26 25 41 26 24 31 38 39 38 30 31 34 28 32
24 22 26 31 31 30 30 28 29 31 34 29 36 16 10 14 24 18 34 28 32 44 33 34 40 6 35 30 17 16 18 23
21 24 28 32 34 34 35 33 31 26 22 30 28 27 17 13 8 9 31 9 24 37 39 35 43 39 27 29 28 22 24 27
16 19 22 25 28 31 31 31 37 33 28 22 23 26 24 19 15 19 13 7 10 24 22 36 41 48 34 27 29 26 30 36
13 14 16 19 21 26 27 29 33 31 33 34 30 24 17 19 14 10 8 9 8 8 13 13 10 18 25 29 35 31 29 27
9 12 15 18 21 23 25 26 28 27 29 30 31 31 32 30 21 8 7 7 4 1 1 3 4 8 17 18 17 19 24 30
8 10 13 16 18 20 22 23 24 24 26 27 28 30 29 27 23 21 17 16 15 16 10 5 3 7 12 15 18 21 26 28
Wind_Direction
285 290 298 298 303 291 281 269 263 259 261 252 231 231 234 230 228 228 232 231 230 234 231 232 232 231 232 229 228 227 226 226
290 296 303 300 300 295 278 271 256 255 253 256 253 234 236 226 228 223 228 227 227 231 230 229 231 229 228 229 226 225 221 220
299 304 306 305 303 294 279 267 258 246 248 248 253 244 239 236 219 224 225 228 224 226 230 229 228 230 223 221 223 220 219 217
306 310 308 306 303 294 276 264 255 247 245 245 245 251 240 238 229 219 222 230 221 224 227 229 226 227 225 220 221 220 221 222
313 309 310 309 306 302 286 266 257 248 242 245 242 244 246 240 236 223 218 221 224 220 224 226 228 226 226 221 222 222 222 225
314 320 319 319 312 302 287 272 259 254 243 243 243 243 240 236 235 229 220 213 225 221 222 221 225 227 225 224 223 224 224 226
329 327 327 323 325 317 312 294 260 251 246 243 245 243 242 237 231 228 222 216 220 224 221 219 222 225 224 226 226 226 229 230
334 334 335 335 329 324 318 311 280 254 246 244 243 240 238 235 228 227 223 221 221 219 221 217 218 221 223 224 227 228 230 233
345 342 341 339 337 333 332 325 318 277 261 240 244 240 238 236 234 223 227 230 234 236 220 218 217 220 223 224 227 230 231 234
350 348 348 344 345 345 334 326 316 302 269 264 258 233 237 235 235 227 225 237 300 257 214 216 216 218 223 223 225 229 231 233
353 353 354 356 357 356 333 327 311 292 272 266 249 254 239 234 239 219 224 230 310 237 212 205 205 211 215 217 220 222 226 230
360 4 6 7 11 7 13 5 332 288 273 239 215 195 246 223 217 212 221 237 257 262 199 200 206 213 211 209 216 218 223 229
6 12 21 24 28 28 24 46 57 80 95 163 191 193 196 196 204 219 229 271 250 208 166 185 201 197 190 189 207 218 222 232
17 18 29 36 37 39 38 37 46 52 73 96 103 156 201 178 204 225 234 255 239 254 211 200 204 267 189 196 209 225 242 243
19 23 33 39 38 42 45 45 50 55 51 62 88 113 122 124 140 210 203 188 221 236 243 208 211 231 217 209 215 240 261 259
23 21 25 38 42 43 46 48 49 50 61 67 65 81 92 94 113 104 118 150 246 219 218 232 232 221 221 233 243 251 247 246
21 27 31 38 43 46 41 48 57 58 57 61 62 67 83 96 90 86 95 132 182 205 216 215 226 237 240 247 251 245 248 247
36 33 32 33 40 44 45 43 50 55 57 63 66 65 68 70 72 93 49 40 43 164 278 203 262 247 247 252 263 263 269 262
37 29 32 30 34 37 40 41 42 44 51 58 58 55 55 59 63 64 64 60 55 50 47 18 333 280 276 275 270 274 277 274
Height
3076 3073 3070 3067 3064 3059 3052 3051 3050 3050 3051 3052 3051 3049 3056 3061 3066 3074 3080 3085 3090 3094 3098 3102 3103 3105 3108 3111 3113 3116 3118 3121
3067 3063 3058 3052 3049 3043 3039 3033 3035 3035 3037 3038 3041 3044 3041 3047 3055 3061 3068 3074 3080 3086 3090 3093 3096 3099 3103 3106 3108 3110 3113 3115
3060 3052 3044 3036 3029 3026 3020 3016 3017 3019 3020 3025 3026 3031 3033 3035 3038 3047 3055 3063 3070 3077 3082 3085 3090 3093 3095 3098 3102 3104 3107 3108
3049 3041 3032 3021 3013 3008 3003 2998 2998 3002 3006 3009 3013 3015 3021 3026 3031 3034 3041 3051 3059 3067 3072 3077 3082 3086 3089 3092 3095 3098 3101 3103
3041 3032 3022 3010 2999 2993 2988 2985 2985 2988 2991 2992 2998 3001 3005 3015 3023 3026 3029 3039 3047 3056 3062 3069 3074 3078 3083 3087 3090 3092 3095 3098
3033 3020 3009 3000 2990 2983 2980 2977 2975 2975 2979 2979 2982 2986 2990 3002 3010 3018 3020 3026 3034 3045 3051 3058 3064 3069 3076 3081 3084 3087 3089 3092
3023 3013 3002 2992 2981 2975 2969 2964 2963 2962 2963 2966 2967 2972 2977 2985 2995 3005 3010 3014 3021 3029 3038 3044 3053 3061 3067 3073 3077 3080 3084 3086
3016 3005 2995 2985 2975 2965 2958 2950 2948 2948 2950 2953 2954 2956 2961 2970 2980 2992 2997 3001 3001 3003 3021 3030 3040 3049 3057 3064 3069 3073 3077 3080
3011 3002 2992 2982 2969 2958 2949 2939 2934 2932 2935 2939 2941 2946 2951 2959 2968 2976 2981 2985 2993 2974 3007 3021 3031 3039 3047 3054 3061 3065 3069 3073
3010 3002 2992 2981 2969 2958 2948 2937 2931 2926 2925 2927 2931 2937 2942 2949 2959 2967 2978 2982 2989 2982 2986 3012 3022 3030 3038 3045 3051 3057 3061 3065
3012 3001 2991 2980 2970 2962 2953 2940 2931 2925 2924 2926 2927 2930 2937 2943 2952 2964 2976 2979 2981 2977 2979 2999 3010 3016 3027 3034 3043 3048 3052 3057
3012 3004 2993 2984 2976 2969 2960 2948 2936 2927 2924 2925 2928 2928 2935 2942 2950 2962 2971 2976 2975 2970 2968 2992 3003 3008 3017 3022 3033 3038 3043 3048
3014 3006 2998 2989 2981 2974 2966 2956 2942 2931 2928 2923 2928 2933 2938 2943 2952 2959 2962 2969 2967 2975 2973 2989 3000 3001 3007 3014 3022 3028 3031 3036
3018 3011 3002 2994 2988 2979 2973 2965 2952 2943 2937 2928 2928 2939 2943 2947 2950 2957 2964 2967 2970 2972 2977 2987 2992 2978 2988 3004 3011 3016 3023 3027
3020 3014 3006 2998 2993 2987 2980 2974 2965 2956 2951 2944 2939 2936 2947 2950 2950 2955 2961 2969 2969 2973 2975 2978 2983 2983 2987 2993 2998 3007 3014 3019
3021 3016 3010 3004 2999 2993 2988 2983 2975 2967 2963 2956 2954 2948 2950 2953 2955 2959 2965 2967 2972 2971 2971 2974 2977 2978 2986 2992 2999 3004 3007 3009
3022 3018 3013 3009 3004 2997 2992 2989 2982 2979 2974 2965 2962 2961 2960 2959 2964 2965 2970 2976 2982 2979 2980 2979 2977 2982 2986 2989 2995 2997 2997 2996
3024 3020 3015 3011 3007 3001 2997 2993 2988 2987 2981 2977 2974 2972 2968 2966 2964 2972 2977 2976 2977 2977 2973 2971 2975 2980 2984 2986 2988 2990 2993 2994
3025 3022 3017 3012 3009 3005 3001 2998 2993 2990 2987 2983 2978 2973 2970 2972 2977 2977 2980 2981 2981 2976 2974 2977 2979 2979 2980 2981 2983 2987 2988 2988